When you browse on this site, cookies collect data to enhance your experience and personalize the content and advertising you see.
Visit our Privacy Policy to learn more. By continuing to use the site, you agree to this use of cookies and data.
  • In United Kingdom
  • List of Countries
  • For 7 days
  • Water Temperature
  • Weather Map
  • Weather Widgets
  • user-avatar
    Login

    Hourly Weather Kericho

    Today, 20 September, Friday

    Time Temperature Precipitation Wind Pressure Humidity
    00:00 +13°C° 0 mm 2 mps 596 mmHg 76%
    01:00 +12°C° 0 mm 2 mps 596 mmHg 76%
    02:00 +12°C° 0 mm 2 mps 596 mmHg 77%
    03:00 +12°C° 0 mm 2 mps 596 mmHg 77%
    04:00 +12°C° 0 mm 2 mps 597 mmHg 77%
    05:00 +12°C° 0 mm 2 mps 597 mmHg 77%
    06:00 +15°C° 0 mm 1 mps 599 mmHg 69%
    07:00 +19°C° 0 mm 1 mps 600 mmHg 61%
    08:00 +22°C° 0 mm 1 mps 601 mmHg 54%
    09:00 +23°C° 0 mm 1 mps 602 mmHg 48%
    10:00 +25°C° 0 mm 1 mps 602 mmHg 43%
    11:00 +27°C° 0 mm 1 mps 603 mmHg 38%
    12:00 +25°C° 0 mm 1 mps 601 mmHg 44%
    13:00 +24°C° 0 mm 1 mps 600 mmHg 51%
    14:00 +22°C° 0 mm 1 mps 598 mmHg 58%
    15:00 +21°C° 0 mm 1 mps 598 mmHg 63%
    16:00 +20°C° 0 mm 1 mps 598 mmHg 67%
    17:00 +19°C° 0 mm 1 mps 597 mmHg 72%
    18:00 +18°C° 0 mm 1 mps 597 mmHg 72%
    19:00 +18°C° 0 mm 1 mps 598 mmHg 71%
    20:00 +16°C° 0 mm 1 mps 598 mmHg 71%
    21:00 +15°C° 0 mm 1 mps 598 mmHg 71%
    22:00 +15°C° 0 mm 1 mps 597 mmHg 72%
    23:00 +14°C° 0 mm 1 mps 597 mmHg 72%

    Tomorrow, 21 September, Saturday

    Time Temperature Precipitation Wind Pressure Humidity
    00:00 +14°C° 0 mm 1 mps 597 mmHg 73%
    01:00 +13°C° 0 mm 1 mps 596 mmHg 73%
    02:00 +13°C° 0 mm 2 mps 596 mmHg 74%
    03:00 +13°C° 0 mm 1 mps 596 mmHg 74%
    04:00 +12°C° 0 mm 1 mps 596 mmHg 74%
    05:00 +12°C° 0 mm 1 mps 597 mmHg 74%
    06:00 +15°C° 0 mm 1 mps 598 mmHg 66%
    07:00 +19°C° 0 mm 1 mps 600 mmHg 58%
    08:00 +20°C° 0 mm 0 mps 601 mmHg 50%
    09:00 +24°C° 0 mm 1 mps 602 mmHg 45%
    10:00 +26°C° 0 mm 1 mps 602 mmHg 40%
    11:00 +28°C° 0 mm 1 mps 602 mmHg 34%
    12:00 +26°C° 0 mm 1 mps 601 mmHg 41%
    13:00 +24°C° 0 mm 1 mps 600 mmHg 48%
    14:00 +23°C° 0 mm 1 mps 598 mmHg 55%
    15:00 +21°C° 0.2 mm 1 mps 598 mmHg 63%
    16:00 +19°C° 0.2 mm 1 mps 597 mmHg 72%
    17:00 +16°C° 0.2 mm 2 mps 596 mmHg 80%
    18:00 +16°C° 0.1 mm 2 mps 597 mmHg 80%
    19:00 +16°C° 0.1 mm 2 mps 597 mmHg 80%
    20:00 +16°C° 0.1 mm 2 mps 597 mmHg 79%
    21:00 +16°C° 0 mm 1 mps 597 mmHg 77%
    22:00 +16°C° 0 mm 1 mps 597 mmHg 75%
    23:00 +16°C° 0 mm 1 mps 597 mmHg 73%

    Day after tomorrow, 22 September, Sunday

    Time Temperature Precipitation Wind Pressure Humidity
    00:00 +15°C° 0 mm 1 mps 597 mmHg 75%
    01:00 +14°C° 0 mm 1 mps 596 mmHg 76%
    02:00 +13°C° 0 mm 1 mps 596 mmHg 78%
    03:00 +14°C° 0 mm 1 mps 596 mmHg 76%
    04:00 +14°C° 0 mm 1 mps 597 mmHg 74%
    05:00 +14°C° 0 mm 1 mps 597 mmHg 72%
    06:00 +16°C° 0 mm 1 mps 598 mmHg 67%
    07:00 +19°C° 0 mm 1 mps 600 mmHg 62%
    08:00 +21°C° 0 mm 1 mps 601 mmHg 56%
    09:00 +23°C° 0 mm 1 mps 601 mmHg 52%
    10:00 +24°C° 0 mm 1 mps 601 mmHg 48%
    11:00 +26°C° 0 mm 1 mps 601 mmHg 43%
    12:00 +24°C° 0.3 mm 2 mps 600 mmHg 50%
    13:00 +23°C° 0.3 mm 2 mps 599 mmHg 57%
    14:00 +20°C° 0.3 mm 2 mps 598 mmHg 64%
    15:00 +18°C° 1.2 mm 2 mps 597 mmHg 73%
    16:00 +17°C° 1.2 mm 2 mps 597 mmHg 82%
    17:00 +15°C° 1.2 mm 2 mps 596 mmHg 90%
    18:00 +15°C° 0.3 mm 2 mps 597 mmHg 89%
    19:00 +15°C° 0.3 mm 2 mps 597 mmHg 88%
    20:00 +15°C° 0.3 mm 2 mps 597 mmHg 87%
    21:00 +15°C° 0 mm 1 mps 597 mmHg 86%
    22:00 +15°C° 0 mm 1 mps 597 mmHg 84%
    23:00 +15°C° 0 mm 1 mps 597 mmHg 83%

    23 September, Monday

    Time Temperature Precipitation Wind Pressure Humidity
    00:00 +15°C° 0 mm 1 mps 597 mmHg 82%
    01:00 +15°C° 0 mm 1 mps 597 mmHg 80%
    02:00 +14°C° 0 mm 2 mps 596 mmHg 79%
    03:00 +14°C° 0 mm 2 mps 597 mmHg 78%
    04:00 +14°C° 0 mm 2 mps 597 mmHg 78%
    05:00 +14°C° 0 mm 1 mps 597 mmHg 77%
    06:00 +16°C° 0 mm 1 mps 598 mmHg 72%
    07:00 +19°C° 0 mm 1 mps 600 mmHg 66%
    08:00 +21°C° 0 mm 1 mps 601 mmHg 61%
    09:00 +22°C° 0.1 mm 1 mps 601 mmHg 57%
    10:00 +23°C° 0.1 mm 1 mps 601 mmHg 52%
    11:00 +25°C° 0.1 mm 1 mps 601 mmHg 48%
    12:00 +23°C° 0.3 mm 1 mps 600 mmHg 56%
    13:00 +22°C° 0.3 mm 1 mps 599 mmHg 63%
    14:00 +19°C° 0.3 mm 2 mps 598 mmHg 71%
    15:00 +19°C° 0.3 mm 1 mps 598 mmHg 75%
    16:00 +18°C° 0.3 mm 1 mps 597 mmHg 78%
    17:00 +16°C° 0.3 mm 1 mps 597 mmHg 82%
    18:00 +16°C° 0.2 mm 2 mps 597 mmHg 83%
    19:00 +15°C° 0.2 mm 2 mps 597 mmHg 85%
    20:00 +15°C° 0.2 mm 2 mps 597 mmHg 87%
    21:00 +15°C° 0 mm 2 mps 597 mmHg 85%
    22:00 +15°C° 0 mm 2 mps 597 mmHg 83%
    23:00 +15°C° 0 mm 1 mps 597 mmHg 81%

    24 September, Tuesday

    Time Temperature Precipitation Wind Pressure Humidity
    00:00 +14°C° 0 mm 1 mps 597 mmHg 81%
    01:00 +14°C° 0 mm 2 mps 597 mmHg 80%
    02:00 +14°C° 0 mm 2 mps 596 mmHg 80%
    03:00 +14°C° 0 mm 2 mps 597 mmHg 79%
    04:00 +13°C° 0 mm 2 mps 597 mmHg 78%
    05:00 +13°C° 0 mm 2 mps 597 mmHg 77%
    06:00 +16°C° 0 mm 1 mps 599 mmHg 70%
    07:00 +20°C° 0 mm 1 mps 600 mmHg 62%
    08:00 +20°C° 0 mm 0 mps 602 mmHg 54%
    09:00 +24°C° 0 mm 1 mps 602 mmHg 51%
    10:00 +25°C° 0 mm 1 mps 602 mmHg 47%
    11:00 +26°C° 0 mm 2 mps 602 mmHg 43%
    12:00 +24°C° 0.2 mm 2 mps 600 mmHg 50%
    13:00 +23°C° 0.2 mm 2 mps 599 mmHg 57%
    14:00 +20°C° 0.2 mm 2 mps 598 mmHg 64%
    15:00 +19°C° 1.4 mm 2 mps 598 mmHg 73%
    16:00 +18°C° 1.4 mm 1 mps 597 mmHg 82%
    17:00 +15°C° 1.4 mm 1 mps 597 mmHg 90%
    18:00 +15°C° 0.5 mm 1 mps 597 mmHg 89%
    19:00 +15°C° 0.5 mm 1 mps 597 mmHg 89%
    20:00 +15°C° 0.5 mm 2 mps 598 mmHg 88%
    21:00 +14°C° 0 mm 2 mps 597 mmHg 88%
    22:00 +14°C° 0 mm 2 mps 597 mmHg 88%
    23:00 +14°C° 0 mm 2 mps 597 mmHg 88%

    25 September, Wednesday

    Time Temperature Precipitation Wind Pressure Humidity
    00:00 +14°C° 0 mm 2 mps 596 mmHg 85%
    01:00 +14°C° 0 mm 2 mps 596 mmHg 83%
    02:00 +14°C° 0 mm 2 mps 596 mmHg 81%
    03:00 +14°C° 0 mm 1 mps 596 mmHg 79%
    04:00 +14°C° 0 mm 1 mps 597 mmHg 78%
    05:00 +15°C° 0 mm 1 mps 597 mmHg 76%
    06:00 +18°C° 0 mm 1 mps 599 mmHg 69%
    07:00 +20°C° 0 mm 1 mps 600 mmHg 61%
    08:00 +21°C° 0 mm 0 mps 601 mmHg 54%
    09:00 +24°C° 0.1 mm 1 mps 601 mmHg 51%
    10:00 +25°C° 0.1 mm 1 mps 601 mmHg 47%
    11:00 +26°C° 0.1 mm 2 mps 601 mmHg 44%
    12:00 +24°C° 0.5 mm 2 mps 600 mmHg 53%
    13:00 +23°C° 0.5 mm 2 mps 599 mmHg 62%
    14:00 +20°C° 0.5 mm 2 mps 597 mmHg 71%
    15:00 +19°C° 0.9 mm 2 mps 597 mmHg 77%
    16:00 +17°C° 0.9 mm 2 mps 597 mmHg 83%
    17:00 +16°C° 0.9 mm 2 mps 597 mmHg 89%
    18:00 +16°C° 1.4 mm 2 mps 597 mmHg 90%
    19:00 +15°C° 1.4 mm 2 mps 597 mmHg 90%
    20:00 +15°C° 1.4 mm 2 mps 597 mmHg 91%
    21:00 +15°C° 0.1 mm 2 mps 597 mmHg 90%
    22:00 +14°C° 0.1 mm 2 mps 597 mmHg 90%
    23:00 +14°C° 0.1 mm 1 mps 597 mmHg 89%
    Show more